Weather History for Phoenix-Mesa Gateway Airport, AZ

Change the Weather History Date:

Monday, October 17, 2011

  Actual Average Record
Temperature  
Mean Temperature 80 °F -  
Max Temperature 96 °F 85 °F 102 °F (2003)
Min Temperature 64 °F 59 °F 50 °F (1998)
Cooling Degree Days 15    
Growing Degree Days 30 (Base 50)    
Moisture  
Dew Point 37 °F    
Average Humidity 25    
Maximum Humidity 34    
Minimum Humidity 12    
Precipitation  
Precipitation 0.00 in - - ()
Sea Level Pressure  
Sea Level Pressure 29.96 in    
Wind  
Wind Speed 6 mph (SE)    
Max Wind Speed 12 mph    
Max Gust Speed -    
Visibility 11 miles    
Events      
Averages and records for this station are not official NWS values.
T = Trace of Precipitation, MM = Missing Value Source: NWS Daily Summary

Daily Weather History Graph

Daily Weather History Graph

Search for Another Location

Airport:

Trip Planner

Search our weather history database for the weather conditions in past years. The results will help you decide how hot, cold, wet, or windy it might be!

Date:

Astronomy

Oct. 17, 2011 Rise Set
Actual Time 6:32 AM MST 5:50 PM MST
Civil Twilight 6:07 AM MST 6:15 PM MST
Nautical Twilight 5:38 AM MST 6:44 PM MST
Astronomical Twilight 5:09 AM MST 7:13 PM MST
Moon 9:47 PM MST (10/17) 11:29 AM MST (10/17)
Length of Visible Light 12h 08m
Length of Day
11h 18m
Waning Gibbous, 73% of the Moon is Illuminated
Oct 17
Waning Gibbous
Oct 19
Last Quarter
Oct 26
New
Nov 2
First Quarter
Nov 10
Full

Hourly Weather History & Observations

Time (MST) Temp. Dew Point Humidity Pressure Visibility Wind Dir Wind Speed Gust Speed Precip Events Conditions
12:15 AM 71.6 °F 33.8 °F 25% 29.95 in 10.0 mi ESE 5.8 mph - N/A   Clear
12:35 AM 71.6 °F 32.0 °F 23% 29.96 in 10.0 mi ESE 5.8 mph - N/A   Clear
12:55 AM 71.6 °F 32.0 °F 23% 29.96 in 10.0 mi ESE 6.9 mph - N/A   Clear
1:15 AM 69.8 °F 33.8 °F 27% 29.96 in 10.0 mi SE 6.9 mph - N/A   Clear
1:35 AM 68.0 °F 35.6 °F 30% 29.96 in 10.0 mi SE 6.9 mph - N/A   Clear
2:15 AM 68.0 °F 37.4 °F 33% 29.96 in 10.0 mi ESE 6.9 mph - N/A   Clear
2:35 AM 68.0 °F 35.6 °F 30% 29.96 in 10.0 mi ESE 5.8 mph - N/A   Clear
2:55 AM 68.0 °F 35.6 °F 30% 29.95 in 10.0 mi ESE 6.9 mph - N/A   Clear
3:15 AM 68.0 °F 35.6 °F 30% 29.95 in 10.0 mi ESE 6.9 mph - N/A   Clear
3:35 AM 66.2 °F 35.6 °F 32% 29.96 in 10.0 mi SE 6.9 mph - N/A   Clear
3:55 AM 64.4 °F 35.6 °F 34% 29.97 in 10.0 mi SE 6.9 mph - N/A   Clear
4:15 AM 64.4 °F 35.6 °F 34% 29.97 in 10.0 mi ESE 5.8 mph - N/A   Clear
4:35 AM 64.4 °F 33.8 °F 32% 29.97 in 10.0 mi ESE 8.1 mph - N/A   Clear
4:55 AM 64.4 °F 33.8 °F 32% 29.97 in 10.0 mi ESE 6.9 mph - N/A   Clear
5:15 AM 66.2 °F 33.8 °F 30% 29.97 in 10.0 mi ESE 5.8 mph - N/A   Clear
5:47 AM 66.2 °F 33.8 °F 30% 29.98 in 20.0 mi East 5.8 mph - N/A   Clear
6:47 AM 66.2 °F 35.6 °F 32% 29.99 in 45.0 mi ESE 8.1 mph - N/A   Clear
7:47 AM 71.6 °F 35.6 °F 27% 30.02 in 45.0 mi East 6.9 mph - N/A   Clear
8:47 AM 77.0 °F 39.2 °F 26% 30.02 in 45.0 mi SE 8.1 mph - N/A   Clear
9:47 AM 84.2 °F 39.2 °F 20% 30.03 in 35.0 mi Variable 4.6 mph - N/A   Clear
10:47 AM 87.8 °F 37.4 °F 17% 30.02 in 35.0 mi Calm Calm - N/A   Clear
11:47 AM 89.6 °F 35.6 °F 15% 30.01 in 35.0 mi Variable 3.5 mph - N/A   Clear
12:47 PM 93.2 °F 37.4 °F 14% 29.97 in 35.0 mi WNW 8.1 mph - N/A   Clear
1:47 PM 96.8 °F 37.4 °F 13% 29.95 in 35.0 mi West 5.8 mph - N/A   Clear
2:47 PM 96.8 °F 35.6 °F 12% 29.93 in 45.0 mi WSW 6.9 mph - N/A   Clear
3:47 PM 96.8 °F 35.6 °F 12% 29.92 in 45.0 mi West 11.5 mph - N/A   Clear
4:51 PM 96.8 °F 35.6 °F 12% 29.91 in 45.0 mi WSW 9.2 mph - N/A   Clear
5:47 PM 96.8 °F 37.4 °F 13% 29.91 in 45.0 mi West 4.6 mph - N/A   Clear
6:47 PM 89.6 °F 33.8 °F 14% 29.93 in 20.0 mi Calm Calm - N/A   Clear
7:47 PM 82.4 °F 39.2 °F 21% 29.93 in 20.0 mi ESE 4.6 mph - N/A   Clear
7:55 PM 82.4 °F 37.4 °F 20% 29.93 in 10.0 mi Calm Calm - N/A   Clear
8:15 PM 80.6 °F 39.2 °F 23% 29.93 in 10.0 mi ESE 5.8 mph - N/A   Clear
8:35 PM 80.6 °F 39.2 °F 23% 29.93 in 10.0 mi ESE 4.6 mph - N/A   Clear
8:54 PM 78.8 °F 37.4 °F 23% 29.93 in 20.0 mi East 5.8 mph - N/A   Clear
8:55 PM 78.8 °F 35.6 °F 21% 29.93 in 10.0 mi East 6.9 mph - N/A   Clear
9:15 PM 77.0 °F 37.4 °F 24% 29.94 in 10.0 mi ESE 6.9 mph - N/A   Clear
9:35 PM 77.0 °F 33.8 °F 21% 29.94 in 10.0 mi ESE 3.5 mph - N/A   Clear
9:55 PM 77.0 °F 41.0 °F 28% 29.94 in 7.0 mi ESE 5.8 mph - N/A   Clear
10:15 PM 77.0 °F 41.0 °F 28% 29.95 in 10.0 mi ESE 5.8 mph - N/A   Clear
10:35 PM 75.2 °F 41.0 °F 29% 29.94 in 10.0 mi ESE 5.8 mph - N/A   Clear
10:55 PM 77.0 °F 37.4 °F 24% 29.94 in 10.0 mi East 6.9 mph - N/A   Clear
11:15 PM 71.6 °F 41.0 °F 33% 29.94 in 10.0 mi SE 5.8 mph - N/A   Clear
11:35 PM 69.8 °F 39.2 °F 33% 29.94 in 10.0 mi SE 5.8 mph - N/A   Clear
11:55 PM 71.6 °F 39.2 °F 31% 29.94 in 10.0 mi ESE 6.9 mph - N/A   Clear